sat.trackr.live / text

‹ back to catalog

STARLINK-34006

NORAD 63869 · 2025-094F

PAYLOAD ACTIVE UNKNOWN

§ Identity

Operator
Country
US
Launch date
2025-05-10
Launch site
AFWTR
Launch vehicle
Mass (kg)
RCS (m²)

Purposes: comms

External: N2YO · Heavens-Above · Gunter

§ Orbital elements

Epoch: 2026-05-25T02:53:06.202752Z

Period
96.11 min
Inclination
70.0019°
Eccentricity
0.0002624
Mean motion
14.98338483 rev/d
Perigee alt
570.2 km
Apogee alt
573.9 km
Semi-major
6,950.2 km
B*
3.1323e-4
RAAN
41.6732°
Arg perigee
269.5826°
Mean anomaly
90.5032°
Rev number
5,865

§ Raw data

STARLINK-340061 63869U 25094F   26145.12021068  .00003647  00000+0  31323-3 0  99942 63869  70.0019  41.6732 0002624 269.5826  90.5032 14.98338483 58650

JSON: /api/v1/satellites/63869 · /tle

For live sub-satellite position, see the globe view (requires WebGL).

§ Visibility from observer

Set your observer location to see the next 7 days of passes ≥ 10°. The values pass through the URL so the page stays shareable.

No JS? Fill the form by hand. The geolocation button needs JavaScript.